{"data":{"norad_id":64818,"intl_designator":"2025-151C","name":"KUIPER-00071","alt_names":[],"object_type":"PAYLOAD","status":"ACTIVE","operator":null,"country":"US","launch_date":"2025-07-16","launch_site_code":"AFETR","launch_vehicle":null,"mission":null,"orbit_class":"UNKNOWN","rcs_meters":null,"size_class":null,"mass_kg":null,"dimensions":null,"purposes":[],"wikipedia_slug":null,"has_3d_model":false,"image_url":null,"decayed_at":null,"tle_current":{"epoch":"2026-05-24T21:32:04.181568Z","epoch_age_seconds":79951,"freshness":"FRESH","line1":"1 64818U 25151C   26144.89727062 -.00000364  00000+0 -18696-4 0  9997","line2":"2 64818  51.9000 326.0993 0000710  96.8747 263.2296 14.79931633 46551","mean_motion":14.79931633,"eccentricity":7.1e-5,"inclination_deg":51.9,"raan_deg":326.0993,"arg_perigee_deg":96.8747,"mean_anomaly_deg":263.2296,"bstar":-1.8696e-5,"rev_number":4655,"period_min":97.30179204839,"perigee_km":629.04239939552,"apogee_km":630.03748952163,"semimajor_km":7007.6769444586,"source":"CELESTRAK","updated_at":"2026-05-25T13:38:04.821722Z"}}}